Oak Ridge, TN

3:31 AM EST on November 18, 2019 (GMT -0500)
Oak Ridge

Weather History for KOQT - September, 2019

Change the Weather History Date:

Wednesday, September 25, 2019

  Actual Average (WUND) Record (WUND)
Temperature  
Mean Temperature 73 °F -  
Max Temperature 90 °F - - (-1)
Min Temperature 57 °F - - (-1)
Cooling Degree Days 8    
Growing Degree Days 23 (Base 50)    
Moisture  
Dew Point 52 °F    
Average Humidity 53    
Maximum Humidity 84    
Minimum Humidity 26    
Precipitation  
Precipitation 0.00 in - - ()
Sea Level Pressure  
Sea Level Pressure 29.90 in    
Wind  
Wind Speed 1 mph ()    
Max Wind Speed 6 mph    
Max Gust Speed -    
Visibility 10.0 miles    
Events      
Averages and records for this station are not official NWS values.
T = Trace of Precipitation, MM = Missing Value Source: Averaged Metar Reports

Daily Weather History Graph

Daily Weather History Graph

Search for Another Location

Airport or City:

Astronomy

Sep. 25, 2019 Rise Set
Actual Time 7:27 AM EDT 7:29 PM EDT
Civil Twilight 7:01 AM EDT 7:55 PM EDT
Nautical Twilight 6:31 AM EDT 8:24 PM EDT
Astronomical Twilight 6:01 AM EDT 8:55 PM EDT
Moon 3:29 AM EDT (9/25) 5:52 PM EDT (9/25)
Length of Visible Light 12h 53m
Length of Day
12h 02m
Waning Crescent, 14% of the Moon is Illuminated
Sep 25
Waning Crescent
Sep 28
New
Oct 5
First Quarter
Oct 13
Full
Oct 21
Last Quarter

Hourly Weather History & Observations

Time (EDT) Temp. Heat Index Dew Point Humidity Pressure Visibility Wind Dir Wind Speed Gust Speed Precip Events Conditions
12:53 AM 62.1 °F - 51.1 °F 67% 29.91 in - Calm Calm - N/A   Clear
1:53 AM 61.0 °F - 51.1 °F 70% 29.90 in - Calm Calm - N/A   Clear
2:53 AM 59.0 °F - 51.1 °F 75% 29.89 in - Calm Calm - N/A   Clear
3:53 AM 57.9 °F - 51.1 °F 78% 29.90 in - Calm Calm - N/A   Clear
4:53 AM 57.0 °F - 51.1 °F 81% 29.91 in - Calm Calm - N/A   Clear
5:53 AM 57.0 °F - 51.1 °F 81% 29.93 in - Calm Calm - N/A   Clear
6:53 AM 57.9 °F - 52.0 °F 81% 29.94 in - Calm Calm - N/A   Clear
7:53 AM 57.9 °F - 53.1 °F 84% 29.95 in - Calm Calm - N/A   Clear
9:53 AM 68.0 °F - 53.1 °F 59% 29.95 in - Calm Calm - N/A   Clear
10:53 AM 73.0 °F - 52.0 °F 48% 29.96 in - Calm Calm - N/A   Clear
11:53 AM 78.1 °F - 53.1 °F 42% 29.94 in - Variable 3.5 mph - N/A   Clear
12:53 PM 82.9 °F - 52.0 °F 34% 29.93 in - North - - N/A   Clear
1:53 PM 84.9 °F - 50.0 °F 30% 29.90 in - Variable 4.6 mph - N/A   Clear
2:53 PM 87.1 °F - 48.0 °F 26% 29.87 in - South 3.5 mph - N/A   Clear
3:53 PM 89.1 °F - 51.1 °F 27% 29.85 in 10.0 mi Variable 5.8 mph - N/A   Clear
4:53 PM 89.1 °F - 51.1 °F 27% 29.85 in 10.0 mi Variable 4.6 mph - N/A   Clear
5:53 PM 89.1 °F - 51.1 °F 27% 29.85 in 10.0 mi South 4.6 mph - N/A   Clear
6:53 PM 87.1 °F - 51.1 °F 29% 29.85 in 10.0 mi Calm Calm - N/A   Clear
7:53 PM 80.1 °F 80.0 °F 54.0 °F 40% 29.86 in 10.0 mi Calm Calm - N/A   Clear
8:53 PM 75.9 °F - 55.9 °F 50% 29.86 in 10.0 mi Calm Calm - N/A   Clear
9:53 PM 73.9 °F - 55.9 °F 53% 29.89 in 10.0 mi Calm Calm - N/A   Clear
10:53 PM 73.0 °F - 57.0 °F 57% 29.89 in 10.0 mi Calm Calm - N/A   Clear
11:53 PM 72.0 °F - 57.9 °F 61% 29.90 in 10.0 mi Calm Calm - N/A   Mostly Cloudy